Weather History for KDTO - October, 2013

Change the Weather History Date:

Sunday, October 6, 2013

  Actual Average Record
Temperature  
Mean Temperature 60 °F -  
Max Temperature 75 °F 78 °F 91 °F (2002)
Min Temperature 46 °F 55 °F 42 °F (2001)
Degree Days  
Heating Degree Days 4    
Growing Degree Days 10 (Base 50)    
Moisture  
Dew Point 39 °F    
Average Humidity 57    
Maximum Humidity 100    
Minimum Humidity 18    
Precipitation  
Precipitation 0.01 in - - ()
Sea Level Pressure  
Sea Level Pressure 30.08 in    
Wind  
Wind Speed 6 mph (NW)    
Max Wind Speed 17 mph    
Max Gust Speed 24 mph    
Visibility 10 miles    
Events      
Averages and records for this station are not official NWS values.
T = Trace of Precipitation, MM = Missing Value Source: NWS Daily Summary

Daily Weather History Graph

Daily Weather History Graph

Search for Another Location

Airport or City:

Trip Planner

Search our weather history database for the weather conditions in past years. The results will help you decide how hot, cold, wet, or windy it might be!

Date:

Astronomy

Oct. 06, 2013 Rise Set
Actual Time 7:26 AM CDT 7:06 PM CDT
Civil Twilight 7:01 AM CDT 7:31 PM CDT
Nautical Twilight 6:33 AM CDT 7:59 PM CDT
Astronomical Twilight 6:04 AM CDT 8:28 PM CDT
Moon 9:05 AM CDT (10/6) 8:14 PM CDT (10/6)
Length of Visible Light 12h 29m
Length of Day
11h 39m
Waxing Crescent, 3% of the Moon is Illuminated
Oct 6
Waxing Crescent
Oct 11
First Quarter
Oct 18
Full
Oct 26
Last Quarter
Nov 3
New

Hourly Weather History & Observations

Time (CDT) Temp. Dew Point Humidity Pressure Visibility Wind Dir Wind Speed Gust Speed Precip Events Conditions
12:53 AM 48.9 °F 48.0 °F 97% 30.08 in 10.0 mi Calm Calm - N/A   Clear
1:53 AM 48.0 °F 46.9 °F 96% 30.09 in 10.0 mi West 4.6 mph - N/A   Clear
2:53 AM 46.9 °F 46.9 °F 100% 30.07 in 10.0 mi Calm Calm - 0.01 in   Unknown
3:53 AM 48.0 °F 46.9 °F 96% 30.06 in 10.0 mi Calm Calm - N/A   Unknown
4:53 AM 46.9 °F 46.9 °F 100% 30.06 in 10.0 mi WNW 5.8 mph - N/A   Unknown
5:53 AM 46.9 °F 45.0 °F 93% 30.07 in 10.0 mi WNW 5.8 mph - N/A   Clear
6:53 AM 48.0 °F 45.0 °F 89% 30.09 in 10.0 mi WNW 9.2 mph - N/A   Clear
7:53 AM 48.0 °F 44.1 °F 86% 30.10 in 10.0 mi WNW 8.1 mph - N/A   Clear
8:53 AM 53.1 °F 45.0 °F 74% 30.13 in 10.0 mi NW 10.4 mph - N/A   Clear
9:53 AM 59.0 °F 39.0 °F 48% 30.13 in 10.0 mi NW 13.8 mph 19.6 mph N/A   Clear
10:53 AM 62.1 °F 39.0 °F 43% 30.14 in 10.0 mi NNW 13.8 mph 19.6 mph N/A   Clear
11:53 AM 64.9 °F 36.0 °F 34% 30.14 in 10.0 mi NNW 12.7 mph - N/A   Clear
12:53 PM 66.9 °F 30.9 °F 26% 30.13 in 10.0 mi North 8.1 mph 16.1 mph N/A   Clear
1:53 PM 69.1 °F 33.1 °F 26% 30.09 in 10.0 mi NW 12.7 mph 18.4 mph N/A   Clear
2:53 PM 72.0 °F 28.9 °F 20% 30.06 in 10.0 mi NW 16.1 mph 23.0 mph N/A   Clear
3:53 PM 73.0 °F 28.0 °F 19% 30.04 in 10.0 mi NNW 12.7 mph - N/A   Clear
4:53 PM 75.0 °F 28.9 °F 18% 30.03 in 10.0 mi NW 13.8 mph 21.9 mph N/A   Clear
5:53 PM 73.9 °F 27.0 °F 18% 30.02 in 10.0 mi NW 17.3 mph 24.2 mph N/A   Clear
6:53 PM 70.0 °F 30.9 °F 24% 30.04 in 10.0 mi NW 9.2 mph - N/A   Clear
7:53 PM 64.0 °F 34.0 °F 33% 30.05 in 10.0 mi NW 5.8 mph - N/A   Clear
8:53 PM 62.1 °F 35.1 °F 37% 30.06 in 10.0 mi Calm Calm - N/A   Clear
9:53 PM 57.0 °F 39.0 °F 51% 30.08 in 10.0 mi Calm Calm - N/A   Clear
10:53 PM 53.1 °F 44.1 °F 71% 30.09 in 10.0 mi Calm Calm - N/A   Clear
11:53 PM 51.1 °F 42.1 °F 71% 30.09 in 10.0 mi Calm Calm - N/A   Clear